Regional Weather Roundup
Issued by NWS

Home | Current Version | Previous Version | Text Only | Print | Product List | Glossary Off
Versions: 1 2 3 4 5 6 7 8 9 10 11 12 13 14 15 16 17 18 19 20 21 22 23 24 25 26 27 28 29 30 31 32 33 34 35 36 37 38 39 40 41 42 43 44 45 46 47 48 49 50

000
ASUS43 KLMK 221910
RWRKY
KENTUCKY REGIONAL WEATHER ROUNDUP
NATIONAL WEATHER SERVICE LOUISVILLE KY
200 PM EST WED FEB 22 2017

NOTE "FAIR" INDICATES FEW OR NO CLOUDS BELOW 12,000 FEET
WITH NO SIGNIFICANT WEATHER AND/OR OBSTRUCTIONS TO VISIBILITY.

KYZ001>023-026-027-061>063-070>075-222000-
WESTERN AND SOUTH CENTRAL KENTUCKY

CITY           SKY/WX    TMP DP  RH WIND       PRES   REMARKS
PADUCAH        PTSUNNY   66  55  67 E3        29.84F
HENDERSON      CLOUDY    68  55  64 SW3       29.83F
OWENSBORO      PTSUNNY   69  58  67 S9        29.84F
HOPKINSVILLE   SUNNY     71  56  59 SE3       29.83F
BOWLING GREEN  CLOUDY    69  57  65 SE7       29.85F
GLASGOW        CLOUDY    67  58  73 S6        29.87F
$$

KYZ024-025-028>034-038-045-046-053-222000-
NORTH CENTRAL KENTUCKY

CITY           SKY/WX    TMP DP  RH WIND       PRES   REMARKS
LOUISVILLE/SDF PTSUNNY   72  54  53 S7        29.83F
LOUISVILLE/LOU MOSUNNY   70  55  59 S10       29.84F
FORT KNOX      PTSUNNY   67  56  67 SW8       29.83F
$$

KYZ035>037-039>044-047>052-055>060-089>105-222000-
NORTHEAST KENTUCKY

CITY           SKY/WX    TMP DP  RH WIND       PRES   REMARKS
LEXINGTON      PTSUNNY   65  55  70 SW12      29.88F
COVINGTON      CLOUDY    63  58  83 SW6       29.85F
FRANKFORT      CLOUDY    67  55  65 SW8       29.85F
$$

KYZ054-064>069-076>088-106>120-222000-
SOUTHEAST KENTUCKY

CITY           SKY/WX    TMP DP  RH WIND       PRES   REMARKS
JACKSON        CLOUDY    58  55  90 VRB3      29.90F
LONDON         CLOUDY    60  54  80 S6        29.90F
SOMERSET       CLOUDY    61  57  88 CALM      29.90F
MIDDLESBORO    DRIZZLE   58  55  89 SE3       29.92F
MONTICELLO     CLOUDY    63  57  81 NE9       29.90F
$$





USA.gov is the U.S. government's official web portal to all federal, state and local government web resources and services.